Regional Weather Roundup
Issued by NWS

Home | Current Version | Previous Version | Text Only | Print | Product List | Glossary Off
Versions: 1 2 3 4 5 6 7 8 9 10 11 12 13 14 15 16 17 18 19 20 21 22 23 24 25 26 27 28 29 30 31 32 33 34 35 36 37 38 39 40 41 42 43 44 45 46 47 48 49 50

000
ASUS43 KLMK 180702
RWRKY
KENTUCKY REGIONAL WEATHER ROUNDUP
NATIONAL WEATHER SERVICE LOUISVILLE KY
200 AM EST THU DEC 18 2014

NOTE "FAIR" INDICATES FEW OR NO CLOUDS BELOW 12,000 FEET
WITH NO SIGNIFICANT WEATHER AND/OR OBSTRUCTIONS TO VISIBILITY.

KYZ001>023-026-027-061>063-070>075-180800-
WESTERN AND SOUTH CENTRAL KENTUCKY

CITY           SKY/WX    TMP DP  RH WIND       PRES   REMARKS
PADUCAH        LGT RAIN  34  30  85 CALM      30.28F
HENDERSON      CLOUDY    30  25  80 NE3       30.31S
OWENSBORO      CLOUDY    31  25  78 MISG      30.32R
HOPKINSVILLE   CLOUDY    32  27  80 N2        30.30R
BOWLING GREEN  CLOUDY    31  24  75 CALM      30.29S
GLASGOW        NOT AVBL
$$

KYZ024-025-028>034-038-045-046-053-180800-
NORTH CENTRAL KENTUCKY

CITY           SKY/WX    TMP DP  RH WIND       PRES   REMARKS
LOUISVILLE/SDF CLOUDY    30  22  72 NE8       30.29S WCI  22
LOUISVILLE/LOU CLOUDY    29  21  72 NW6       30.30S WCI  23
FORT KNOX      CLOUDY    28  23  81 N3        30.26S
$$

KYZ035>037-039>044-047>052-055>060-089>105-180800-
NORTHEAST KENTUCKY

CITY           SKY/WX    TMP DP  RH WIND       PRES   REMARKS
LEXINGTON      CLOUDY    28  22  78 N7        30.26R WCI  21
COVINGTON      CLOUDY    26  18  71 N6        30.27R WCI  19
FRANKFORT      CLOUDY    29  22  75 N8        30.26S WCI  21
$$

KYZ054-064>069-076>088-106>120-180800-
SOUTHEAST KENTUCKY

CITY           SKY/WX    TMP DP  RH WIND       PRES   REMARKS
JACKSON        CLOUDY    29  23  78 NW3       30.22S
LONDON         CLEAR     28  23  81 CALM      30.24R
SOMERSET       NOT AVBL
MIDDLESBORO    NOT AVBL
MONTICELLO     SUNNY     21  20  96 CALM      30.28S
$$




USA.gov is the U.S. government's official web portal to all federal, state and local government web resources and services.